+ View the NASA Portal
+ Center for Near-Earth Object Studies
IMPORTANT:
The SSD Announcement email list is now available. Major changes are coming in the near future, including possible hostname and/or URL changes. To be notified of such changes, subscribe to this email list.
Please visit
this page
for more details.
Don't show this message again
JPL Small-Body Database Browser
Search:
[
help
]
344116 (1999 VB83)
Classification:
Main-belt Asteroid
SPK-ID:
2344116
[
Ephemeris
|
Orbit Diagram
|
Orbital Elements
|
Mission Design
|
Physical Parameters
|
Discovery Circumstances
|
Close-Approach Data
]
[ show orbit diagram ]
Orbital Elements at Epoch 2458600.5 (2019-Apr-27.0) TDB
Reference:
JPL 8
(heliocentric ecliptic J2000)
Element
Value
Uncertainty (1-sigma)
Units
e
.06249545368000726
1.4876e-07
a
2.657618860763503
3.3979e-08
au
q
2.491529764351543
3.8551e-07
au
i
22.08735941827232
1.626e-05
deg
node
27.53083201092746
2.4069e-05
deg
peri
103.9888203976425
0.000123
deg
M
87.56987049630273
0.00012006
deg
t
p
2458215.562980413869
(2018-Apr-07.06298041)
0.00052654
TDB
period
1582.477240923384
4.33
3.0349e-05
8.309e-08
d
yr
n
.2274914233773991
4.3629e-09
deg/d
Q
2.823707957175462
3.6103e-08
au
Orbit Determination Parameters
# obs. used (total)
105
data-arc span
7035 days (19.26 yr)
first obs. used
1999-10-06
last obs. used
2019-01-09
planetary ephem.
DE431
SB-pert. ephem.
SB431-N16
condition code
0
norm. resid. RMS
.49818
source
ORB
producer
Otto Matic
solution date
2019-Jul-13 13:37:36
Additional Information
Earth MOID
= 1.57031 au
Jupiter MOID
= 2.24288 au
T_jup
= 3.280
[ show covariance matrix ]
[
Ephemeris
|
Orbit Diagram
|
Orbital Elements
|
Mission Design
|
Physical Parameters
|
Discovery Circumstances
|
Close-Approach Data
]
Physical Parameter Table
Parameter
Symbol
Value
Units
Sigma
Reference
Notes
absolute magnitude
H
16.3
n/a
MPO437458
344116 (1999 VB83)
Discovered 1999-Oct-06 by Spacewatch at Kitt Peak
Reference:
20121128/Numbers.arc
Last Updated:
2012-12-03
[ show close-approach data ]
Alternate Designations
1999 VB83
= 2012 TN98
[
Ephemeris
|
Orbit Diagram
|
Orbital Elements
|
Mission Design
|
Physical Parameters
|
Discovery Circumstances
|
Close-Approach Data
]
2019-Dec-06 21:22 UT
(server date/time)
Site Manager:
Ryan S. Park
Webmaster
:
Alan B. Chamberlin